#timestamp,LO_Frequency,Hit,StdDev 
1596071235.6,286047011.3,P
1596071255.5,286047011.2,P
1596071275.3,286047011.2,P
1596071295.2,286047010.9,Y
1596071315.9,286046999.7,P
1596071335.7,286047002.7,N
1596071355.6,286047004.3,N
1596071375.4,286047004.4,N
1596071395.2,286047004.3,N
1596071415.1,286047003.9,N
1596071416.0,286047003.9,N
1596071435.8,286047002.9,N
1596071455.7,286047003.3,N
1596071475.5,286047003.2,N
1596071495.3,286047005.8,N
1596071515.2,286047005.0,N
1596071535.0,286047004.7,N
1596071535.9,286047004.7,N
1596071555.7,286047008.8,Y
1596071575.6,286047003.5,P
1596071595.4,286047003.4,P
1596071615.3,286047004.0,P
1596071635.1,286047003.9,Y
1596071655.8,286046998.6,P
1596071675.7,286046996.9,N
1596071695.5,286046997.1,N
1596071715.4,286046996.7,N
1596071735.2,286046999.6,N
1596071755.0,286047001.1,N
1596071755.9,286047001.1,N
1596071775.8,286047000.4,N
1596071795.6,286047004.3,N
1596071815.5,286047004.2,N
1596071835.3,286047004.3,N
1596071855.1,286047000.1,N
1596071875.9,286047001.8,N
1596071895.7,286047004.4,N
1596071915.5,286047003.3,N
1596071935.4,286047004.2,N
1596071955.2,286047001.9,N
1596071975.1,286047004.0,N
1596071976.0,286047004.0,N
1596071995.8,286047003.9,N
1596072015.6,286047002.1,N
1596072035.5,286047001.8,N
1596072055.3,286047002.1,N
1596072075.2,286047004.3,N
1596072095.9,286046999.9,N
1596072115.7,286047000.5,N
1596072135.6,286047002.6,N
1596072155.4,286047002.5,N
1596072175.3,286047001.3,N
1596072195.1,286047002.7,N
1596072196.0,286047002.7,N
1596072215.8,286047002.7,N
1596072235.7,286046999.9,N
1596072255.5,286047002.4,N
1596072275.3,286047003.2,N
1596072295.2,286047005.9,Y
1596072315.0,286047002.5,P
1596072315.9,286047002.5,P
1596072335.8,286047001.3,P
1596072355.6,286047001.8,Y
1596072375.4,286046999.8,P
1596072395.3,286047001.6,N
1596072415.1,286047004.3,P
1596072435.9,286047003.4,N
1596072455.7,286047005.6,Y
1596072475.5,286047003.4,P
1596072495.4,286047003.5,P
1596072515.2,286047002.9,P
1596072535.1,286047006.0,Y
1596072536.0,286047006.0,P
1596072555.8,286047000.3,N
1596072575.6,286047000.2,N
1596072595.5,286046999.8,N
1596072615.3,286046998.1,N
1596072635.2,286047000.9,N
1596072655.9,286047001.1,N
1596072675.7,286047000.4,N
1596072695.6,286047000.9,N
1596072715.4,286047001.0,N
1596072735.2,286046999.9,N
1596072755.1,286047001.4,N
1596072756.0,286047001.4,N
1596072775.8,286047002.1,N
1596072795.7,286047000.5,N
1596072815.5,286047000.3,N
1596072835.3,286046998.4,N
1596072855.2,286047001.2,N
1596072875.9,286047001.0,N
1596072895.7,286047002.0,N
1596072915.6,286047006.0,Y
1596072935.4,286047002.5,P
1596072955.3,286047000.3,N
1596072975.1,286047000.6,N
1596072976.0,286047000.6,N
1596072995.8,286047002.8,Y
1596073015.7,286047002.8,P
1596073035.5,286047001.9,N
1596073055.4,286047002.3,P
1596073075.2,286047000.2,N
1596073095.0,286047002.4,N
1596073095.9,286047002.4,N
1596073115.8,286047000.5,N
1596073135.6,286047000.9,N
1596073155.4,286046999.1,N
1596073175.3,286046998.9,N
1596073195.1,286046999.2,N
1596073215.9,286046998.7,N
1596073235.7,286047000.1,N
1596073255.5,286047000.0,N
1596073275.4,286047002.6,N
1596073295.2,286047001.6,N
1596073315.1,286047002.1,N
1596073316.0,286047002.1,N
1596073335.8,286047004.2,Y
1596073355.6,286047003.6,P
1596073375.5,286047001.5,N
1596073395.3,286047005.5,P
1596073415.1,286047003.3,N
1596073435.9,286047004.2,N
1596073455.7,286047004.3,N
1596073475.6,286047003.0,N
1596073495.4,286047006.0,Y
1596073515.2,286047001.3,P
1596073535.1,286047005.6,P
1596073536.0,286047005.6,P
1596073555.8,286047004.5,N
1596073575.7,286047001.8,N
1596073595.5,286047000.1,N
1596073615.3,286047002.5,N
1596073635.2,286047000.7,N
1596073655.9,286047001.2,N
1596073675.7,286046998.4,N
1596073695.6,286046999.4,N
1596073715.4,286046998.5,N
1596073735.2,286046999.0,N
1596073755.1,286046997.1,N
1596073756.0,286046997.1,N
1596073775.8,286046998.8,N
1596073795.7,286047001.7,N
1596073815.5,286047004.9,N
1596073835.3,286047005.0,N
1596073855.2,286047004.8,N
1596073875.0,286047004.6,N
1596073875.9,286047004.6,N
1596073895.8,286047005.5,N
1596073915.6,286047005.8,N
1596073935.4,286047004.7,N
1596073955